Flag for Portugal Weather past 2 weeks in Porto, Portugal

Now
59 °F

Sunny.


Feels Like: 59 °F
Forecast: 41 / 55 °F
Wind: 1 mph from North

Location: Porto / Pedras Rubras

Current Time: Dec 26, 2014 at 1:10:14 PM

Latest Report: Dec 26, 2014 at 12:30 PM


Visibility: 10 mi

Pressure: 30.54 "Hg

Humidity: 63%

Dew point: 46 °F

Location of PortoLocation

Historic Weather in Porto — Graph

°F

Porto temperature yesterday

Maximum temperature yesterday: 57 °F (at 1:30 PM)
Minimum temperature yesterday: 41 °F (at 5:00 AM)
Average temperature yesterday: 48 °F

Past Weeks' High & Low Weather Summary

 TemperatureHumidityPressure
High63 °F (Dec 21, 1:30 PM)100% (Dec 11, 7:00 PM)30.57 "Hg (Dec 11, 7:00 PM)
Low37 °F (Dec 20, 3:30 AM)56% (Dec 21, 1:30 PM)29.71 "Hg (Dec 13, 2:00 AM)
Average50 °F86%30.31 "Hg
* Reported Dec 11 12:00 Noon — Dec 26 12:00 Noon, Porto, Weather by CustomWeather, © 2014

Note: Actual official high and low records may vary slightly from our data, if they occured in-between our weather recording intervals... More about our weather records

Advertising

Porto weather history for previous 24 hours

 ConditionsComfort  
Time TempWeatherWind HumidityBarometerVisibility
12:00 PM
Dec 26
57 °FSunny.2 mph63%30.54 "Hg10 mi
11:30 AM55 °FSunny.1 mph67%30.57 "Hg10 mi
11:00 AM54 °FSunny.2 mph77%30.57 "Hg10 mi
10:30 AM55 °FSunny.2 mph67%30.57 "Hg10 mi
10:00 AM50 °FSunny.5 mph82%30.57 "Hg10 mi
9:30 AM48 °FSunny.2 mph87%30.57 "Hg10 mi
9:00 AM41 °FSunny.2 mph100%30.57 "Hg10 mi
8:30 AM39 °FSunny.1 mph100%30.54 "Hg10 mi
8:00 AM41 °FSunny.2 mph100%30.54 "Hg10 mi
7:30 AM39 °FPassing clouds.5 mph100%30.54 "HgN/A
7:00 AM37 °FClear.5 mph100%30.54 "Hg10 mi
6:30 AM37 °FClear.2 mph100%30.54 "Hg5 mi
6:00 AM39 °FClear.3 mph93%30.51 "Hg10 mi
5:30 AM39 °FClear.3 mph100%30.51 "Hg5 mi
5:00 AM39 °FClear.3 mph100%30.51 "Hg6 mi
4:30 AM39 °FClear.2 mph100%30.54 "Hg5 mi
4:00 AM39 °FClear.2 mph100%30.54 "Hg5 mi
3:30 AM41 °FClear.3 mph100%30.54 "Hg10 mi
2:30 AM43 °FClear.5 mph100%30.51 "Hg10 mi
2:00 AM41 °FClear.5 mph100%30.54 "Hg5 mi
1:30 AM45 °FClear.3 mph93%30.54 "Hg6 mi
1:00 AM45 °FClear.3 mph93%30.54 "Hg6 mi
12:30 AM43 °FClear.3 mph100%30.54 "Hg5 mi
12:00 AM41 °FClear.3 mph93%30.57 "Hg5 mi
11:30 PM
Dec 25
41 °FClear.2 mph100%30.54 "Hg5 mi
11:00 PM45 °FClear.6 mph93%30.54 "Hg10 mi
10:00 PM45 °FClear.2 mph93%30.54 "Hg10 mi
9:30 PM45 °FClear.2 mph93%30.54 "Hg10 mi
9:00 PM46 °FClear.1 mph93%30.54 "Hg10 mi
8:30 PM45 °FPassing clouds.3 mph93%30.54 "HgN/A
8:00 PM50 °FClear.5 mph88%30.54 "Hg10 mi
7:30 PM48 °FClear.5 mph94%30.54 "Hg10 mi
7:00 PM48 °FClear.6 mph94%30.54 "Hg5 mi
6:30 PM48 °FClear.2 mph94%30.54 "Hg5 mi
6:00 PM50 °FClear.3 mph94%30.51 "Hg10 mi
5:30 PM52 °FClear.2 mph82%30.51 "Hg5 mi
5:00 PM54 °FSunny.3 mph82%30.51 "Hg10 mi
4:30 PM55 °FSunny.2 mph77%30.51 "Hg10 mi
4:00 PM55 °FSunny.5 mph77%30.51 "Hg10 mi
3:00 PM55 °FPassing clouds.6 mph72%30.54 "HgN/A
2:30 PM55 °FPassing clouds.6 mph67%30.54 "HgN/A
2:00 PM55 °FPassing clouds.5 mph67%30.54 "HgN/A
1:30 PM57 °FPassing clouds.3 mph67%30.54 "HgN/A
1:00 PM54 °FPassing clouds.3 mph72%30.57 "HgN/A
Weather by CustomWeather, © 2014

See weather overviewHow to use our weather pages